Location: Chihuahua
(28.6330°N, 106.0830°W)
Time: 22:46:19
(UTC-07:00)

Daily predictions for brighter satellites

Satellite Brightness Start Highest point End
(mag) Time Altitude Azimuth Time Altitude Azimuth Time Altitude Azimuth
Cosmos 1076 Rocket 3.4 19:26:38 10° S 19:30:51 75° E 19:35:08 10° N
ASTRO E2 3.2 19:31:30 10° W 19:35:24 50° SSW 19:39:19 10° SE
Delta 128 3.6 19:32:23 10° W 19:37:16 77° S 19:41:45 10° ESE
SWIFT 3.9 19:39:14 10° WSW 19:42:29 22° S 19:45:44 10° SE
Cosmos 2026 Rocket 3.9 19:36:33 10° S 19:42:36 80° E 19:48:45 10° N
H-2A R/B 3.6 19:48:07 11° ESE 19:51:22 23° ENE 19:54:54 10° NNE
Cosmos 332 Rocket 4.0 19:47:06 10° N 19:51:51 53° ENE 19:56:30 11° SSE
Cosmos 1441 Rocket 3.6 19:50:35 10° SSE 19:54:08 39° E 19:57:40 10° NNE
GPS 2-12 Rocket1 4.2 19:56:07 10° SW 19:59:50 25° S 20:02:22 16° SE
Cosmos 1328 Rocket 4.2 19:56:37 10° NNE 20:00:44 36° E 20:03:54 15° SE
Cosmos 540 Rocket 3.5 19:56:58 10° NNW 20:02:10 89° WSW 20:07:18 10° SSE
USA 229 DEB 3.8 19:56:32 10° SSW 20:03:26 89° WNW 20:10:26 10° NNE
USA 229 3.7 19:56:38 10° SSW 20:03:33 90° N 20:10:32 10° NNE
OAO 2 Rocket 3.8 20:00:35 10° SW 20:05:34 42° SSE 20:10:34 10° E
Cosmos 1655 Rocket 4.4 20:00:46 10° SSW 20:06:55 65° W 20:13:05 10° N
Cosmos 1743 Rocket 3.6 20:04:00 10° S 20:08:28 89° WNW 20:12:57 10° N
Cosmos 2322 Rocket 2.4 20:04:30 10° N 20:09:58 53° ENE 20:13:59 18° SE
Cosmos 2228 Rocket 3.1 20:07:56 10° N 20:12:25 71° E 20:16:20 13° SSE
S3M 4.0 20:07:00 10° N 20:13:02 62° E 20:18:32 13° SSE
Cosmos 1500 Rocket 3.5 20:10:33 10° S 20:14:51 70° E 20:19:13 10° N
Cosmos 968 Rocket 4.4 20:10:53 10° SSW 20:15:53 52° WNW 20:20:58 10° N
In-Cosmos 22 4.4 20:10:57 10° S 20:16:42 82° W 20:22:29 10° N
Cosmos 2221 4.3 20:13:59 10° NNW 20:17:45 31° W 20:21:31 10° SSW
Cosmos 1980 Rocket 3.3 20:14:08 10° NW 20:19:26 42° WSW 20:24:44 10° S
CZ-4 DEB 3.6 20:16:59 11° S 20:19:56 48° W 20:23:03 10° NNW
Cosmos 2360 Rocket 3.7 20:15:48 10° NNE 20:20:00 21° ENE 20:22:22 16° E
ATLAS CENTAUR R/B 1.3 20:15:38 10° NNW 20:20:01 85° WSW 20:22:28 23° SSE
SL-16 R/B 2.3 20:14:27 10° N 20:20:04 61° ENE 20:23:46 22° SE
Cosmos 1908 4.4 20:17:24 10° NNE 20:20:44 26° E 20:21:34 24° ESE
USA 186 3.4 20:19:11 10° SSW 20:21:05 21° W 20:23:00 10° NW
FENGYUN 3A 4.4 20:16:46 10° S 20:22:00 51° W 20:27:16 10° NNW
NOSS 3-1 (A) 4.2 20:21:18 20° SE 20:23:31 26° ESE 20:28:25 10° NE
Cosmos 2292 4.4 20:20:37 10° N 20:23:36 55° E 20:24:55 31° SSE
Cosmos 1939 Rocket 3.0 20:23:26 27° SE 20:25:19 51° ENE 20:29:08 10° N
ALOS 3.7 20:22:26 10° SSW 20:26:42 36° W 20:31:01 10° NNW
Cosmos 371 Rocket 3.2 20:23:02 10° NNW 20:27:52 86° ENE 20:30:53 23° SSE
deb Chang Zheng 4 3.8 20:24:16 10° N 20:28:35 70° WNW 20:32:53 10° SSW
Cosmos 1674 2.6 20:28:19 25° SSE 20:30:23 62° E 20:34:11 10° NNE
Delta 2 Rocket 4.4 20:28:31 10° W 20:31:51 35° NNW 20:35:00 10° NE
GPS 2-04 Rocket1 2.8 20:31:24 10° WNW 20:35:47 88° NNE 20:37:28 36° ESE
SPOT 5 3.2 20:34:33 31° ESE 20:36:02 41° ENE 20:40:24 10° N
Envisat 3.1 20:33:43 27° SE 20:36:20 60° ENE 20:41:20 10° N
Tiangong 1 0.9 20:34:42 10° SW 20:37:48 86° NW 20:39:15 28° NE
Cosmos 1437 2.8 20:41:55 56° E 20:41:55 56° E 20:45:06 10° NNE
ERS-1 Rocket 3.3 20:39:08 17° S 20:42:57 63° W 20:47:56 10° NNW
Cosmos 1437 Rocket 2.5 20:43:50 10° N 20:47:39 80° E 20:48:31 52° SSE
PSLV R/B 3.9 20:48:36 41° NE 20:48:36 41° NE 20:51:05 10° N
Cosmos 546 4.5 20:44:34 10° SW 20:48:28 75° SE 20:52:23 10° NE
Cosmos 1515 Rocket 3.7 20:45:06 10° N 20:49:30 70° W 20:51:39 29° S
H-2A R/B 2.7 20:48:04 10° WSW 20:51:09 59° SSE 21:04:09 10° E
Meteor 2-2 Rocket 4.3 20:45:39 10° N 20:51:40 87° E 20:54:59 29° S
Sich 1 4.4 20:56:58 26° ENE 20:56:58 26° ENE 20:59:46 10° NNE
Cosmos 2151 2.9 20:55:05 39° S 20:56:36 86° W 21:00:48 10° N
Cosmos 1633 Rocket 4.5 20:58:07 24° ENE 20:58:07 24° ENE 21:00:39 10° NNE
YAOGAN 6 3.4 20:57:57 37° NE 20:57:57 37° NE 21:00:52 10° N
Cosmos 405 2.9 20:58:19 10° N 21:01:51 84° NNE 21:01:51 84° NNE
Cosmos 2266 Rocket 4.4 20:56:40 10° SSW 21:02:57 64° W 21:09:09 10° N
Cosmos 1328 3.7 21:03:42 62° SSW 21:04:18 81° W 21:08:15 10° N
COSMOS 2428 4.0 21:01:31 10° N 21:06:05 24° ENE 21:06:47 24° ENE
Cosmos 2315 Rocket 4.0 21:02:46 10° N 21:08:54 60° E 21:10:26 47° SE
H-2A R/B 3.6 21:10:13 21° ENE 21:10:15 21° ENE 21:14:08 10° NNE
Cosmos 304 Rocket 3.8 21:05:41 10° N 21:10:26 58° ENE 21:10:43 57° E
Cosmos 1805 Rocket 3.4 21:10:41 74° SE 21:10:54 76° E 21:15:21 10° N
NOSS 3-1 (C) 3.3 21:05:15 10° SSW 21:10:57 85° WNW 21:17:10 10° NNE
Cosmos 1151 Rocket 3.3 21:10:34 10° NNW 21:14:49 62° W 21:15:32 53° SW
MetOp-A 4.0 21:15:14 52° S 21:16:35 86° WSW 21:21:58 10° NNW
SL-24 R/B - RUBIN 2 4.4 21:12:00 10° NNW 21:18:44 87° WSW 21:20:28 52° SSE
ARGOS 3.3 21:18:34 52° E 21:19:04 54° ENE 21:24:18 10° N
Cosmos 2058 3.0 21:22:14 70° WNW 21:22:14 70° WNW 21:26:15 10° N
SPOT 1/Viking Rocket 3.4 21:21:45 67° ESE 21:22:11 72° ENE 21:27:19 10° N
Cosmos 2219 Rocket 4.1 21:18:58 10° NNE 21:22:13 16° ENE 21:22:26 16° ENE
Cosmos 1244 Rocket 4.4 21:21:49 43° S 21:24:04 88° E 21:30:24 10° N
H-2A R/B 4.1 21:25:15 18° SW 21:27:11 24° W 21:30:52 10° NW
Palapa 6 Rocket 4.5 21:21:01 10° WSW 21:28:40 57° S 21:30:03 51° SSE
Cosmos 1680 Rocket 3.3 21:24:21 10° NNW 21:29:36 90° W 21:29:56 79° SSE
SL-14 R/B 4.2 21:32:24 43° N 21:32:24 43° N 21:35:10 10° N
Cosmos 1666 Rocket 3.8 21:33:43 65° NNW 21:33:43 65° NNW 21:37:31 10° N
Cosmos 923 Rocket 4.2 21:28:12 10° NNW 21:33:18 59° WSW 21:33:56 55° SW
Terra 3.3 21:34:39 26° NE 21:34:39 26° NE 21:37:37 10° NNE
Cosmos 2219 4.2 21:29:05 10° SW 21:34:31 44° WNW 21:40:00 10° N
Cosmos 1375 Rocket 4.4 21:28:46 10° NNW 21:35:21 89° WSW 21:36:25 65° SSE
CZ-4B R/B 4.4 21:31:04 10° N 21:36:05 47° WNW 21:38:40 26° SW
Cosmos 1707 Rocket 4.1 21:31:51 10° N 21:35:13 52° NNE 21:35:13 52° NNE
Cosmos 1898 Rocket 3.4 21:36:30 80° WSW 21:36:44 83° WNW 21:41:56 10° NNE
Cosmos 2150 Rocket 4.1 21:37:35 66° SW 21:38:19 79° WNW 21:43:48 10° NNE
Cosmos 1726 3.9 21:35:35 10° N 21:37:27 27° NNE 21:37:27 27° NNE
Cosmos 1745 Rocket 4.0 21:42:06 62° E 21:42:06 62° E 21:48:09 10° NNE
SL-08 R/B 4.3 21:43:02 74° SE 21:43:23 76° E 21:49:38 10° N
Cosmos 858 Rocket 4.5 21:44:11 78° WNW 21:44:11 78° WNW 21:49:25 10° NNE
Meteor 1-27 4.1 21:41:52 10° N 21:47:31 89° WNW 21:47:31 89° WNW
Meteor 2-11 Rocket 4.3 21:43:37 10° N 21:49:46 87° W 21:50:09 80° S
Cosmos 2322 4.0 21:44:17 10° NNW 21:49:52 58° WSW 21:50:11 57° WSW
OAO 2 Rocket 3.7 21:45:04 10° W 21:50:21 65° NNW 21:50:41 63° N
Cosmos 2237 Rocket 4.0 21:47:04 10° NNE 21:50:31 18° NE 21:50:31 18° NE
Cosmos 2322 Rocket 4.5 21:50:34 10° WNW 21:53:27 14° W 21:55:50 11° SW
DMSP B5D2-2 4.5 21:52:01 10° NNE 21:56:02 54° NNE 21:56:02 54° NNE
NOAA 11 4.4 21:58:27 64° W 21:58:27 64° W 22:03:42 10° NNW
Cosmos 2360 Rocket 3.1 21:58:49 10° NW 22:04:02 40° WSW 22:04:09 40° WSW
Cosmos 2227 Rocket 2.8 22:24:14 53° N 22:24:14 53° N 22:28:38 10° NNE
FALCON 9 R/B 3.7 22:11:58 10° W 22:33:28 62° N 22:36:25 36° ENE
ATLAS 2AS CENTAUR R/B 2.9 22:35:30 73° W 22:35:58 76° WNW 22:43:53 10° NNE
Cosmos 2333 Rocket 3.2 22:33:12 10° N 22:37:11 42° NNE 22:37:11 42° NNE
SL-16 R/B 4.1 22:38:37 10° NNE 22:41:37 20° NE 22:41:37 20° NE
H-2A R/B 3.6 22:50:52 30° WNW 22:50:52 30° WNW 22:54:15 10° NNW
COSMOS 2428 4.2 22:45:14 10° NW 22:48:48 29° WNW 22:48:48 29° WNW
Cosmos 2297 Rocket 3.3 22:52:10 41° NNW 22:52:10 41° NNW 22:55:59 10° N
Lacrosse 4 Rocket 4.4 22:55:25 10° NNE 22:55:56 12° NNE 22:55:56 12° NNE
ATLAS 3B R/B 3.8 22:57:41 10° N 23:03:20 32° NE 23:03:20 32° NE
Cosmos 2219 Rocket 3.6 23:01:00 10° NNW 23:04:09 33° NW 23:04:09 33° NW
H-2A ROCKET BODY 4.3 21:51:32 10° W 23:09:52 90° S 23:14:26 45° E
Terra 4.4 23:13:32 15° WNW 23:13:32 15° WNW 23:14:47 10° NW
COSMOS 2455 4.1 23:25:14 10° NNW 23:28:56 37° N 23:28:56 37° N
Cosmos 2237 Rocket 4.0 23:29:44 10° NNW 23:32:20 26° NW 23:32:20 26° NW
